[[{"header":{"parameterUnit":"m.s-1","parameterCategory":1,"la1":30.2991,"la2":30.254,"lo1":-89.0895,"lo2":-89.0444,"dy":0.0017,"dx":0.0017,"nx":28,"ny":28,"refTime":"2024-05-01T03:00:00:Z","depth":0,"parameterNumber":2,"parameterNumberName":"U-component_of_WINDS"},"data":[0,0,0,0,0,0,0,0,0,0,0,0,0,0,0,0,0,0,0,0,0,0,0,0,0,0,0,0,0,0,0,0,0,0,0,0,0,0,0,0,0,0,0,0,0,0,0,0,0,0,0,0,0,0,0,0,0,0,-1.6309,-1.6309,0,-1.6316,-1.6316,-1.6316,-1.6281,-1.628,-1.6279,-1.6278,-1.6286,-1.6287,-1.6288,0,0,0,0,0,0,0,0,0,0,0,0,0,-1.6267,-1.6268,-1.6309,-1.6309,-1.6309,-1.6316,-1.6316,-1.6316,-1.6281,-1.628,-1.6279,-1.6278,-1.6286,-1.6287,-1.6288,0,0,0,0,0,0,0,0,0,0,0,0,0,-1.6281,-1.6268,-1.6309,-1.6293,-1.6291,-1.6316,-1.6316,-1.6316,-1.6282,-1.628,-1.6279,-1.6277,-1.6285,-1.6287,-1.6289,-1.6329,0,0,-1.6294,-1.6295,0,0,0,0,0,0,0,0,-1.628,-1.6282,-1.6295,-1.6294,-1.6292,-1.6296,-1.6304,-1.6321,-1.6282,-1.6285,-1.6278,-1.6277,-1.6291,-1.6292,-1.6296,-1.633,-1.633,-1.6294,-1.6295,-1.6296,-1.6296,0,0,0,0,0,0,0,-1.6279,-1.6282,-1.6312,-1.6295,-1.6294,-1.6285,-1.6286,-1.6307,-1.6296,-1.6285,-1.6282,-1.6284,-1.629,-1.6295,-1.6296,-1.633,-1.6294,-1.6295,-1.6296,-1.6297,-1.6398,-1.6399,0,0,0,0,0,0,-1.628,-1.6281,-1.6312,-1.6312,-1.6282,-1.6287,-1.6288,-1.6297,-1.6296,-1.6295,-1.6285,-1.6282,-1.6293,-1.6294,-1.6297,-1.6345,-1.6296,-1.6297,-1.6298,-1.6396,-1.6398,-1.64,0,0,0,0,0,0,-1.628,-1.6283,-1.6311,-1.6296,-1.6299,-1.629,-1.63,-1.6297,-1.6303,-1.6296,-1.6294,-1.6292,-1.6292,-1.6294,-1.6322,-1.6344,-1.6298,-1.63,-1.6394,-1.6397,-1.6399,-1.6441,0,0,0,0,0,0,-1.6279,-1.6283,-1.6298,-1.6297,-1.63,-1.6336,-1.6301,-1.6299,-1.6306,-1.6302,-1.6302,-1.6301,-1.6291,-1.6319,-1.6323,-1.6346,-1.6301,-1.6392,-1.6395,-1.6398,-1.6437,-1.6444,-1.645,0,0,0,0,0,-1.6277,-1.631,-1.6299,-1.6303,-1.6319,-1.6337,-1.6339,-1.6326,-1.6308,-1.6323,-1.6319,-1.6301,-1.6341,-1.6322,-1.6327,-1.635,-1.6391,-1.6395,-1.6398,-1.6434,-1.6443,-1.645,0,0,0,0,0,0,-1.6315,-1.6309,-1.6297,-1.6331,-1.6335,-1.6331,-1.635,-1.6336,-1.6345,-1.6342,-1.6325,-1.6326,-1.6356,-1.6356,-1.6335,-1.639,-1.6363,-1.6368,-1.6389,-1.6397,-1.6403,-1.6403,-1.6302,0,0,0,0,0,-1.6327,-1.6342,-1.6337,-1.6366,-1.6369,-1.636,-1.6367,-1.6357,-1.6361,-1.6362,-1.636,-1.6365,-1.6378,-1.6388,-1.64,-1.6437,-1.6437,-1.6456,-1.6462,-1.6468,-1.6472,-1.6492,-1.65,-1.6412,-1.6412,-1.6412,0,0,-1.6352,-1.6351,-1.6361,-1.6374,-1.6376,-1.6393,-1.6361,-1.638,-1.6392,-1.6365,-1.6391,-1.639,-1.6394,-1.6427,-1.6441,-1.6427,-1.6496,-1.6472,-1.6477,-1.6478,-1.6497,-1.6505,-1.6513,-1.6415,-1.6414,-1.6414,0,0,-1.6406,-1.6407,-1.6432,-1.6435,-1.6438,-1.6431,-1.6438,-1.6437,-1.6435,-1.646,-1.6441,-1.6455,-1.6479,-1.6483,-1.6488,-1.6545,-1.6529,-1.6549,-1.6583,-1.6603,-1.661,-1.6616,-1.6637,-1.6644,-1.6553,-1.6554,-1.6554,0,-1.6437,-1.6461,-1.6447,-1.6467,-1.6473,-1.6449,-1.6475,-1.6478,-1.6486,-1.6491,-1.6475,-1.6505,-1.6506,-1.654,-1.6554,-1.6559,-1.6565,-1.6549,-1.661,-1.6616,-1.6622,-1.6641,-1.6649,-1.6556,-1.6556,-1.6555,-1.6555,0,-1.6499,-1.6516,-1.6536,-1.6544,-1.6552,-1.6575,-1.6565,-1.6575,-1.6565,-1.656,-1.6587,-1.6587,-1.6599,-1.6607,-1.6596,-1.6639,-1.663,-1.6613,-1.6585,-1.6633,-1.6651,-1.6658,-1.656,-1.6559,-1.6558,-1.6557,0,0,-1.6577,-1.6576,-1.6584,-1.6587,-1.659,-1.6603,-1.6625,-1.6637,-1.6646,-1.6653,-1.6671,-1.6692,-1.6676,-1.6682,-1.6672,-1.669,-1.6735,-1.667,-1.667,-1.6682,-1.6783,-1.6796,-1.6805,-1.6725,-1.6726,-1.6727,-1.6782,0,-1.663,-1.6667,-1.6655,-1.6693,-1.6709,-1.6687,-1.6707,-1.6711,-1.6707,-1.6721,-1.6717,-1.6732,-1.6709,-1.6713,-1.6729,-1.6726,-1.6755,-1.6722,-1.6742,-1.6743,-1.6742,-1.6814,-1.6828,-1.688,-1.6789,-1.679,-1.6791,0,-1.6697,-1.6706,-1.6746,-1.6746,-1.6752,-1.677,-1.678,-1.6793,-1.6797,-1.6793,-1.68,-1.6787,-1.6809,-1.6782,-1.6812,-1.679,-1.6798,-1.6797,-1.6799,-1.68,-1.677,-1.6817,-1.6896,-1.6904,-1.6802,-1.6801,-1.6801,0,-1.675,-1.6772,-1.6799,-1.6802,-1.6803,-1.6816,-1.6817,-1.682,-1.6828,-1.6837,-1.6842,-1.6854,-1.686,-1.687,-1.686,-1.6841,-1.6892,-1.6864,-1.689,-1.6891,-1.6902,-1.6901,-1.6983,-1.6907,-1.6907,-1.6907,-1.6906,0,-1.6811,-1.6836,-1.6822,-1.6839,-1.6867,-1.6853,-1.6881,-1.688,-1.6882,-1.6899,-1.688,-1.6896,-1.6882,-1.6897,-1.6889,-1.6916,-1.6919,-1.6917,-1.6915,-1.6919,-1.6919,-1.6924,-1.692,-1.6909,-1.6908,-1.6908,-1.6907,0,-1.6875,-1.6867,-1.6894,-1.6893,-1.6893,-1.6914,-1.6913,-1.6928,-1.6924,-1.6944,-1.6948,-1.6941,-1.6957,-1.6949,-1.6966,-1.6961,-1.6996,-1.6988,-1.6994,-1.6992,-1.7019,-1.7017,-1.7107,-1.7118,-1.7034,-1.7035,-1.7036,0,-1.6914,-1.6933,-1.6934,-1.6943,-1.6946,-1.6961,-1.6969,-1.6957,-1.6966,-1.6973,-1.6988,-1.7002,-1.7013,-1.704,-1.7037,-1.705,-1.7043,-1.7073,-1.7045,-1.7048,-1.7044,-1.7043,-1.7045,-1.7079,-1.708,-1.7081,-1.7082,0,-1.6986,-1.6981,-1.6993,-1.7004,-1.7014,-1.7023,-1.7029,-1.7038,-1.7026,-1.7037,-1.7054,-1.7062,-1.708,-1.7095,-1.7106,-1.7107,-1.7093,-1.7091,-1.7098,-1.7102,-1.7105,-1.7104,-1.701,-1.7089,-1.7088,-1.7088,-1.7087,-1.7087,-1.7039,-1.7055,-1.7058,-1.7072,-1.7076,-1.7083,-1.7097,-1.7095,-1.7108,-1.7121,-1.7113,-1.7132,-1.7136,-1.715,-1.7154,-1.7169,-1.7157,-1.7166,-1.7169,-1.7172,-1.7175,-1.7102,-1.7171,-1.7171,-1.717,-1.717,-1.717,0,-1.7109,-1.711,-1.7123,-1.7134,-1.7145,-1.713,-1.7137,-1.7148,-1.7165,-1.717,-1.7182,-1.7201,-1.7215,-1.7213,-1.7227,-1.7239,-1.7233,-1.7243,-1.7242,-1.7243,-1.7185,-1.7178,-1.7248,-1.7248,-1.7248,-1.7248,-1.7248,-1.7248,-1.7147,-1.7173,-1.7169,-1.7197,-1.7198,-1.7217,-1.7222,-1.7229,-1.7233,-1.7255,-1.7267,-1.7265,-1.7268,-1.7281,-1.7294,-1.7293,-1.7299,-1.7312,-1.7308,-1.7255,-1.7247,-1.724,-1.7233,-1.7313,-1.7313,-1.7365,-1.7365,-1.7366]},{"header":{"parameterUnit":"m.s-1","parameterCategory":1,"la1":30.2991,"la2":30.254,"lo1":-89.0895,"lo2":-89.0444,"dy":0.0017,"dx":0.0017,"nx":28,"ny":28,"refTime":"2024-05-01T03:00:00:Z","depth":0,"parameterNumber":3,"parameterNumberName":"V-component_of_WINDS"},"data":[0,0,0,0,0,0,0,0,0,0,0,0,0,0,0,0,0,0,0,0,0,0,0,0,0,0,0,0,0,0,0,0,0,0,0,0,0,0,0,0,0,0,0,0,0,0,0,0,0,0,0,0,0,0,0,0,0,0,2.067,2.067,0,2.0661,2.0661,2.0661,2.0619,2.0618,2.0617,2.0616,2.0607,2.0608,2.0609,0,0,0,0,0,0,0,0,0,0,0,0,0,2.065,2.0651,2.067,2.067,2.067,2.0661,2.0661,2.0661,2.0619,2.0618,2.0617,2.0616,2.0607,2.0608,2.0609,0,0,0,0,0,0,0,0,0,0,0,0,0,2.0652,2.0651,2.067,2.0648,2.0646,2.0661,2.0661,2.0661,2.0619,2.0618,2.0616,2.0615,2.0607,2.0608,2.0609,2.0645,0,0,2.0612,2.0612,0,0,0,0,0,0,0,0,2.0652,2.0653,2.0651,2.0649,2.0647,2.064,2.0651,2.0656,2.062,2.0629,2.0616,2.0614,2.0619,2.0619,2.0621,2.0645,2.0644,2.0612,2.0613,2.0613,2.0613,0,0,0,0,0,0,0,2.0652,2.0653,2.0666,2.0651,2.0649,2.0638,2.0637,2.0652,2.0633,2.0628,2.0625,2.0625,2.0618,2.062,2.062,2.0644,2.0612,2.0613,2.0614,2.0614,2.0699,2.07,0,0,0,0,0,0,2.0655,2.0653,2.0667,2.0666,2.0646,2.064,2.0638,2.0643,2.0632,2.0629,2.0626,2.0623,2.0619,2.0619,2.062,2.0662,2.0613,2.0614,2.0615,2.0697,2.0699,2.0701,0,0,0,0,0,0,2.0655,2.0656,2.0667,2.0659,2.0659,2.0642,2.0648,2.0644,2.0646,2.0631,2.0627,2.0632,2.0618,2.0618,2.0639,2.0661,2.0615,2.0616,2.0695,2.0698,2.07,2.0747,0,0,0,0,0,0,2.0654,2.0657,2.067,2.0659,2.066,2.0686,2.0649,2.0645,2.0648,2.0644,2.0635,2.0632,2.0617,2.0638,2.064,2.0662,2.0616,2.0693,2.0696,2.0699,2.0743,2.075,2.0757,0,0,0,0,0,2.0654,2.0683,2.0671,2.0673,2.0676,2.0688,2.0688,2.0669,2.065,2.0663,2.0654,2.0632,2.0659,2.0641,2.0643,2.0665,2.0691,2.0695,2.0699,2.074,2.0749,2.0756,0,0,0,0,0,0,2.0696,2.0681,2.0667,2.0694,2.0693,2.0681,2.0697,2.0679,2.0683,2.0679,2.0656,2.0654,2.0679,2.0674,2.0654,2.07,2.0671,2.0676,2.0702,2.071,2.0717,2.0718,2.0617,0,0,0,0,0,2.0709,2.072,2.0706,2.0731,2.0731,2.0714,2.0719,2.0705,2.0702,2.0701,2.0693,2.0691,2.0699,2.0704,2.0711,2.0742,2.074,2.0759,2.0766,2.0771,2.0775,2.0792,2.08,2.0713,2.0713,2.0712,0,0,2.0735,2.0728,2.0736,2.074,2.0737,2.0748,2.0714,2.0728,2.0736,2.0703,2.0722,2.0717,2.0713,2.074,2.0751,2.0737,2.0799,2.0776,2.0781,2.0781,2.0797,2.0805,2.0813,2.0715,2.0715,2.0714,0,0,2.0788,2.0784,2.0805,2.0803,2.0799,2.0788,2.0793,2.0784,2.0779,2.0798,2.0774,2.0784,2.0798,2.0797,2.0798,2.0853,2.0833,2.0856,2.0891,2.0908,2.0915,2.0921,2.094,2.0948,2.0859,2.086,2.086,0,2.0821,2.0837,2.0818,2.0833,2.0836,2.0807,2.0828,2.0827,2.0826,2.0829,2.0812,2.083,2.0825,2.0852,2.0865,2.0867,2.0873,2.0856,2.0915,2.0921,2.0926,2.0945,2.0952,2.0862,2.0862,2.0862,2.0861,0,2.0878,2.089,2.0908,2.0907,2.0912,2.093,2.0914,2.0921,2.0907,2.0898,2.0918,2.0912,2.0917,2.0923,2.0909,2.0948,2.0939,2.0919,2.089,2.0938,2.0955,2.0962,2.0866,2.0865,2.0864,2.0864,0,0,2.0956,2.0946,2.0953,2.0953,2.0948,2.0957,2.0974,2.0979,2.0986,2.0987,2.1001,2.1014,2.0996,2.0998,2.0984,2.0999,2.1043,2.0978,2.0977,2.099,2.1086,2.11,2.1109,2.1031,2.1032,2.1033,2.1086,0,2.1008,2.1037,2.102,2.1052,2.1063,2.1037,2.1052,2.1051,2.1043,2.1052,2.1043,2.1053,2.1029,2.103,2.1044,2.1035,2.1062,2.1031,2.1044,2.1045,2.1045,2.1118,2.1133,2.1183,2.1093,2.1094,2.1095,0,2.1071,2.1075,2.1108,2.1101,2.1105,2.1119,2.1123,2.1132,2.113,2.1123,2.1126,2.1109,2.1126,2.1098,2.1121,2.1101,2.1105,2.1102,2.1103,2.1104,2.1072,2.112,2.1199,2.1206,2.1105,2.1104,2.1103,0,2.1125,2.1138,2.116,2.1161,2.1154,2.1164,2.1162,2.1159,2.1163,2.1167,2.117,2.1175,2.1178,2.1183,2.1168,2.1149,2.1194,2.1165,2.1189,2.119,2.12,2.1199,2.128,2.1203,2.1203,2.1203,2.1203,0,2.1183,2.1205,2.1184,2.1198,2.1221,2.1203,2.1226,2.1221,2.1219,2.1231,2.1208,2.122,2.12,2.121,2.1198,2.122,2.1221,2.1217,2.1213,2.1219,2.1219,2.1221,2.1217,2.1205,2.1204,2.1204,2.1204,0,2.1248,2.1235,2.1257,2.1249,2.1247,2.1265,2.1258,2.127,2.1262,2.1277,2.128,2.1266,2.1277,2.1263,2.1272,2.1264,2.1294,2.1285,2.1295,2.1292,2.1318,2.1316,2.1403,2.1413,2.133,2.133,2.1331,0,2.1286,2.1301,2.1296,2.1302,2.1301,2.1312,2.1317,2.13,2.1306,2.1306,2.1318,2.1327,2.1333,2.1352,2.1343,2.135,2.1341,2.1371,2.1342,2.1347,2.1342,2.1341,2.1343,2.1377,2.1378,2.1379,2.138,0,2.1355,2.1348,2.1356,2.1362,2.1369,2.1373,2.1375,2.1382,2.1364,2.1372,2.1383,2.1388,2.1398,2.1407,2.1412,2.1409,2.1392,2.1389,2.1395,2.1401,2.1406,2.1404,2.1311,2.1387,2.1386,2.1386,2.1385,2.1385,2.1407,2.142,2.1418,2.1428,2.1429,2.1432,2.1443,2.1436,2.1445,2.1452,2.1441,2.1455,2.1454,2.1459,2.1459,2.147,2.1457,2.1465,2.1468,2.147,2.1474,2.1404,2.1471,2.147,2.147,2.147,2.147,0,2.1475,2.1473,2.1482,2.1487,2.1495,2.1478,2.148,2.1488,2.1501,2.1501,2.1508,2.1521,2.1531,2.1523,2.1531,2.1541,2.1533,2.1544,2.1542,2.1542,2.1485,2.1479,2.155,2.155,2.155,2.155,2.155,2.155,2.1511,2.1533,2.1526,2.1549,2.1546,2.156,2.1563,2.1566,2.1566,2.1582,2.159,2.1585,2.1582,2.159,2.1598,2.1595,2.1599,2.1613,2.1607,2.1554,2.1546,2.1539,2.1533,2.1614,2.1614,2.1664,2.1664,2.1664]}]]